Weather History for Hollywood, FL

Change the Weather History Date:

Sunday, February 24, 2013

  Actual Average (KFLL) Record (KFLL)
Temperature  
Mean Temperature 80 °F 71 °F  
Max Temperature 88 °F 78 °F 89 °F (2008)
Min Temperature 71 °F 65 °F 35 °F (1989)
Degree Days  
Heating Degree Days 0 1  
Month to date heating degree days 24  
Since 1 July heating degree days 104  
Cooling Degree Days 14 7  
Month to date cooling degree days 159  
Year to date cooling degree days 329  
Growing Degree Days 30 (Base 50)    
Moisture  
Dew Point 70 °F    
Average Humidity 83    
Maximum Humidity 100    
Minimum Humidity 40    
Precipitation  
Precipitation 0.00 in 0.10 in 1.10 in (1968)
Month to date precipitation 2.59  
Year to date precipitation 6.22  
Snow  
Snow 0.00 in - - ()
Month to date snowfall  
Since 1 July snowfall  
Snow Depth -    
Sea Level Pressure  
Sea Level Pressure 29.97 in    
Wind  
Wind Speed 4 mph (SSW)    
Max Wind Speed 12 mph    
Max Gust Speed -    
Visibility 10 miles    
Events      
T = Trace of Precipitation, MM = Missing Value Source: NWS Daily Summary

Daily Weather History Graph

Daily Weather History Graph

Search for Another Location

Airport:

Trip Planner

Search our weather history database for the weather conditions in past years. The results will help you decide how hot, cold, wet, or windy it might be!

Date:

Astronomy

Feb. 24, 2013 Rise Set
Actual Time 6:48 AM EST 6:19 PM EST
Civil Twilight 6:25 AM EST 6:43 PM EST
Nautical Twilight 5:58 AM EST 7:09 PM EST
Astronomical Twilight 5:31 AM EST 7:36 PM EST
Moon 5:29 PM EST (2/24) 5:42 AM EST (2/24)
Length of Visible Light 12h 17m
Length of Day
11h 31m
Waxing Gibbous, 99% of the Moon is Illuminated
Feb 24
Waxing Gibbous
Feb 25
Full
Mar 4
Last Quarter
Mar 11
New
Mar 19
First Quarter

Hourly Weather History & Observations

Time (EST) Temp. Heat Index Dew Point Humidity Pressure Visibility Wind Dir Wind Speed Gust Speed Precip Events Conditions
12:53 AM 73.0 °F - 71.1 °F 93% 30.00 in 10.0 mi South 4.6 mph - N/A   Partly Cloudy
1:13 AM 73.4 °F - 71.6 °F 94% 30.00 in 10.0 mi South 3.5 mph - N/A   Mostly Cloudy
1:21 AM 73.4 °F - 71.6 °F 94% 29.99 in 10.0 mi South 3.5 mph - N/A   Mostly Cloudy
1:44 AM 73.4 °F - 71.6 °F 94% 29.99 in 10.0 mi South 3.5 mph - N/A   Mostly Cloudy
1:53 AM 73.0 °F - 71.1 °F 93% 29.99 in 10.0 mi South 3.5 mph - N/A   Mostly Cloudy
2:53 AM 73.0 °F - 72.0 °F 96% 29.97 in 10.0 mi SSW 4.6 mph - N/A   Overcast
3:51 AM 73.4 °F - 71.6 °F 94% 29.96 in 10.0 mi South 3.5 mph - N/A   Overcast
3:53 AM 73.0 °F - 72.0 °F 96% 29.96 in 10.0 mi SSE 3.5 mph - N/A   Overcast
4:04 AM 73.4 °F - 71.6 °F 94% 29.96 in 10.0 mi Calm Calm - N/A   Mostly Cloudy
4:11 AM 73.4 °F - 71.6 °F 94% 29.96 in 10.0 mi Calm Calm - N/A   Overcast
4:49 AM 71.6 °F - 71.6 °F 100% 29.96 in 10.0 mi Calm Calm - N/A   Scattered Clouds
4:53 AM 72.0 °F - 71.1 °F 97% 29.96 in 10.0 mi Calm Calm - N/A   Scattered Clouds
5:00 AM 71.6 °F - 71.6 °F 100% 29.96 in 10.0 mi Calm Calm - N/A   Mostly Cloudy
5:23 AM 71.6 °F - 71.6 °F 100% 29.96 in 10.0 mi Calm Calm - N/A   Overcast
5:53 AM 72.0 °F - 71.1 °F 97% 29.97 in 10.0 mi Calm Calm - N/A   Overcast
6:38 AM 71.6 °F - 71.6 °F 100% 29.98 in 10.0 mi Calm Calm - N/A   Mostly Cloudy
6:53 AM 72.0 °F - 71.1 °F 97% 29.99 in 10.0 mi SW 3.5 mph - N/A   Overcast
7:53 AM 73.9 °F - 73.0 °F 97% 29.99 in 10.0 mi South 4.6 mph - N/A   Partly Cloudy
8:26 AM 75.2 °F - 73.4 °F 94% 30.00 in 10.0 mi SSW 5.8 mph - N/A   Mostly Cloudy
8:53 AM 77.0 °F - 73.0 °F 88% 30.01 in 10.0 mi WSW 5.8 mph - N/A   Scattered Clouds
9:30 AM 78.8 °F - 71.6 °F 78% 30.02 in 10.0 mi SW 4.6 mph - N/A   Mostly Cloudy
9:53 AM 80.1 °F 83.6 °F 71.1 °F 74% 30.02 in 10.0 mi WSW 5.8 mph - N/A   Mostly Cloudy
10:00 AM 80.6 °F 84.6 °F 71.6 °F 74% 30.02 in 10.0 mi SW 5.8 mph - N/A   Scattered Clouds
10:53 AM 81.0 °F 84.9 °F 71.1 °F 72% 30.02 in 10.0 mi West 6.9 mph - N/A   Partly Cloudy
11:53 AM 84.0 °F 87.0 °F 68.0 °F 58% 30.00 in 10.0 mi Variable 6.9 mph - N/A   Partly Cloudy
12:53 PM 84.0 °F 85.4 °F 64.0 °F 51% 29.97 in 10.0 mi West 8.1 mph - N/A   Scattered Clouds
1:53 PM 88.0 °F 87.9 °F 61.0 °F 40% 29.94 in 10.0 mi SW 10.4 mph - N/A   Clear
2:53 PM 84.0 °F 87.8 °F 69.1 °F 61% 29.94 in 10.0 mi SSE 9.2 mph - N/A   Scattered Clouds
3:53 PM 82.9 °F 85.8 °F 68.0 °F 60% 29.93 in 10.0 mi SSE 10.4 mph - N/A   Scattered Clouds
4:53 PM 82.0 °F 84.9 °F 68.0 °F 62% 29.93 in 10.0 mi SE 11.5 mph - N/A   Scattered Clouds
5:53 PM 80.1 °F 82.7 °F 68.0 °F 67% 29.94 in 10.0 mi SSE 8.1 mph - N/A   Partly Cloudy
6:53 PM 78.1 °F - 68.0 °F 71% 29.94 in 10.0 mi South 5.8 mph - N/A   Clear
7:53 PM 75.9 °F - 69.1 °F 79% 29.96 in 10.0 mi SSE 4.6 mph - N/A   Clear
8:53 PM 77.0 °F - 68.0 °F 74% 29.97 in 10.0 mi Calm Calm - N/A   Partly Cloudy
9:53 PM 75.9 °F - 68.0 °F 76% 29.97 in 10.0 mi Calm Calm - N/A   Overcast
10:53 PM 75.0 °F - 68.0 °F 79% 29.96 in 10.0 mi Calm Calm - N/A   Overcast
11:53 PM 73.9 °F - 68.0 °F 82% 29.95 in 10.0 mi Calm Calm - N/A   Clear